Location: Degersen
(52.2871°N, 9.5716°E)
Time: 00:29:27
(UTC+00:00)

Cosmos 2369 Rocket - Pass Details

Date: 20 January 2026
Orbit: 827 x 853 km, 71.0° (Epoch: 17 February)

Event Time Altitude Azimuth Distance (km) Brightness Sun altitude
Rises 06:26:39 0° 212° (SSW) 3,399 5.3 -7.9°
Reaches altitude 10° 06:29:05 10° 213° (SSW) 2,471 4.5 -7.6°
Maximum altitude 06:34:47 81° 302° (WNW) 868 2.2 -6.8°
Drops below altitude 10° 06:40:32 10° 30° (NNE) 2,493 4.7 -6.0°
Sets 06:43:00 0° 31° (NNE) 3,433 5.4 -5.6°
